SCP
0 0 0 0 0 0 0 0 0 0 0 0 0 0 0 0 0 1 1 1 3 3 4 2 4 4 3 2 2 2 1 1 1 1 1 1 1 1 1 1 1 1 1
-0 0 -0 0 0 0 0 0 0 0 0 0 0 0 0 0 -0 0 1 1 1 2 2 1 2 4 3 3 3 2 2 2 1 1 1 1 1 1 1 1 1 1 1
0 0 0 0 0 0 0 0 0 0 0 0 0 0 0 0 0 -0 0 0 1 1 1 1 2 6 3 3 3 3 3 2 2 2 2 1 1 1 1 1 1 1 1
0 0 0 0 0 0 0 0 0 0 0 0 0 0 0 0 0 0 0 0 0 1 2 1 4 2 2 4 4 3 3 2 2 1 1 1 1 1 1 1 1 2 1
0 0 0 0 0 0 0 0 0 0 0 0 0 0 0 0 0 0 -0 0 0 0 2 2 3 3 4 4 2 2 2 1 0 0 0 0 0 1 1 1 1 1 1
0 0 0 0 0 0 0 0 0 0 0 0 0 0 0 0 0 0 0 -0 -0 1 2 3 3 3 1 1 2 1 0 0 0 0 0 0 0 0 0 1 1 1 1
0 0 0 0 0 0 0 0 0 0 0 0 0 0 0 0 0 0 0 0 0 1 1 1 1 2 2 1 1 1 0 0 0 0 0 0 0 0 0 0 0 1 1
0 0 0 0 0 0 0 0 0 0 0 0 0 0 0 0 0 0 0 0 0 1 2 3 2 1 1 0 0 0 0 0 0 0 0 0 0 0 0 0 0 0 1
0 0 0 0 0 0 0 0 0 0 0 0 0 0 0 0 0 -0 0 0 0 -0 1 1 1 1 0 0 0 0 0 0 0 0 0 0 0 1 0 0 0 0 0
0 0 0 0 0 0 0 0 0 0 0 0 0 0 0 0 0 0 -0 0 0 -0 0 0 1 1 0 0 0 0 0 0 0 0 0 0 0 0 0 1 0 0 0
0 0 0 0 0 0 0 0 0 0 0 0 0 0 0 0 0 0 -0 -0 0 -0 0 0 0 0 0 0 0 0 0 0 0 0 0 0 0 0 0 0 0 0 0
0 0 0 0 0 0 0 0 0 0 0 0 0 0 0 0 0 0 0 0 -0 -0 -0 0 0 0 0 0 0 0 0 0 0 0 0 0 0 0 0 0 0 0 0
0 0 0 0 0 0 0 0 0 0 0 0 0 0 0 0 0 0 0 0 0 -0 -0 -0 0 -0 0 0 0 0 0 0 0 0 0 0 0 0 0 0 0 0 0
0 0 0 0 0 0 0 0 0 0 0 0 0 0 0 0 0 0 0 0 0 -0 -0 -0 0 0 0 0 0 0 0 0 0 0 0 0 0 0 0 0 0 0 0
0 0 0 0 0 0 0 0 0 0 0 0 0 0 0 0 0 0 0 0 0 0 -0 0 0 0 0 0 0 0 0 0 0 0 0 0 0 0 0 0 0 0 0
0 0 0 0 0 0 0 0 0 0 0 0 0 0 0 0 0 0 0 0 0 0 0 0 0 0 0 0 0 0 0 0 0 0 0 0 0 0 0 0 0 0 0
0 0 0 0 0 0 0 0 0 0 0 0 -0 -0 0 0 0 0 0 0 0 0 0 0 0 0 0 0 0 -0 0 0 0 0 0 0 0 -0 0 0 0 0 0
0 0 0 0 0 0 0 0 0 0 0 0 -0 0 0 0 0 0 0 0 0 0 0 0 0 0 0 0 0 0 0 0 0 0 -0 -0 -0 -0 0 0 0 0 0
0 0 0 0 0 0 0 0 0 0 0 0 0 0 0 0 0 0 0 0 0 0 0 0 0 0 0 0 0 0 0 0 -0 -0 -0 -0 -0 -0 -0 0 0 0 0
0 0 0 0 0 -0 -0 -0 0 0 0 0 0 0 0 0 0 0 0 0 0 0 0 0 0 0 0 0 0 0 0 0 -0 -0 -0 -0 -0 -0 0 0 0 0 0
0 0 0 0 0 -0 -0 -0 -0 -0 -0 0 0 0 0 0 0 0 0 0 0 0 0 0 0 0 0 0 0 0 0 0 -0 0 0 0 0 0 0 0 0 0 0
0 0 0 0 0 0 -0 -0 -0 -0 -0 -0 -0 0 0 0 0 0 0 0 0 0 0 0 0 0 0 0 0 0 0 0 0 0 0 0 0 0 0 0 0 0 0
-0 0 0 0 0 0 0 -0 0 -0 -0 -0 -0 -0 -0 -0 0 0 0 0 0 0 0 0 0 0 0 0 0 0 0 0 0 0 0 0 0 0 0 -0 0 0 0
-0 0 0 0 0 0 0 0 0 0 0 -0 -0 -0 -0 -0 0 0 -0 0 0 0 0 0 0 0 0 0 0 0 0 -0 0 0 0 -0 -0 -0 -0 -0 0 -0 -0
-0 0 0 0 0 0 0 0 0 0 0 0 0 -0 -0 0 -0 -0 -0 0 0 0 0 0 0 -0 -0 0 0 0 0 0 0 0 0 -0 -0 -0 -0 0 0 0 -0
0 0 0 0 0 0 0 0 0 0 0 0 0 0 -0 0 -0 -0 0 0 0 0 0 0 -0 0 -0 0 0 0 0 0 0 0 -0 -0 -0 0 -0 0 0 0 0
Wind_Speed_500mb
50 45 47 33 41 43 46 49 42 49 50 51 49 51 57 63 58 57 63 72 69 65 76 78 72 66 62 58 58 53 50 52 52 51 49 45 46 48 54 61 60 60 63
45 25 35 30 31 41 50 55 44 49 52 53 48 50 58 63 70 55 73 73 68 63 71 69 84 75 68 61 63 59 54 54 53 53 53 53 51 52 52 54 58 58 60
35 38 32 31 36 47 50 43 51 51 49 48 50 60 62 59 73 71 55 64 72 76 82 69 97 69 72 64 64 63 58 56 55 55 56 57 57 59 61 63 64 65 65
32 35 40 38 38 50 46 47 50 51 61 64 65 58 63 62 69 75 72 65 72 69 68 69 74 67 63 62 65 63 62 61 59 58 59 59 60 63 66 69 71 72 71
44 44 49 48 45 51 48 49 53 57 63 69 66 64 64 66 73 77 79 69 61 74 75 88 81 71 61 55 60 56 60 60 57 57 57 59 61 64 65 69 72 74 74
42 52 49 44 51 58 56 54 63 68 67 63 62 69 70 65 72 79 69 79 70 54 81 56 71 64 34 65 64 49 61 62 56 59 59 61 64 67 73 76 75 72 68
55 50 50 58 64 75 74 57 58 60 59 50 64 68 71 77 71 62 61 63 74 77 63 63 79 73 65 56 44 41 54 59 51 55 58 59 65 72 75 77 78 76 72
56 67 78 81 72 55 51 57 60 69 77 71 57 69 62 80 71 57 57 54 44 65 80 70 57 50 50 51 48 21 40 52 43 48 51 59 63 73 70 70 71 73 73
68 75 69 62 57 63 72 75 65 64 68 71 58 48 55 52 74 82 78 60 56 59 58 63 66 63 70 43 29 26 57 47 36 38 44 50 55 58 54 54 57 65 67
62 48 54 68 76 82 71 72 69 66 69 74 65 51 53 57 54 67 73 65 54 57 49 55 55 59 58 50 28 12 65 33 28 27 29 36 38 29 22 20 33 49 58
66 72 68 60 58 70 73 67 63 60 61 59 54 50 55 59 53 48 65 68 59 43 25 18 36 29 62 48 46 40 55 30 20 15 19 21 33 25 15 9 17 24 37
68 65 62 63 67 66 59 58 56 53 51 49 46 44 47 50 49 51 54 63 57 33 28 12 7 15 14 42 35 40 31 20 5 7 8 10 14 21 22 10 7 9 12
69 64 63 60 55 52 54 49 51 45 40 40 38 40 45 45 43 47 49 53 43 35 34 22 27 37 32 9 21 20 15 7 1 3 6 7 13 16 16 11 11 16 20
61 62 57 50 48 49 44 45 44 38 35 37 40 36 42 43 41 40 42 37 38 24 16 20 14 9 11 19 16 10 3 4 1 4 6 10 11 11 12 9 5 2 3
55 56 51 46 47 47 41 44 39 38 36 37 34 35 36 34 32 33 35 30 22 15 11 0 10 19 11 12 19 7 4 7 4 4 10 12 13 14 15 14 12 8 4
54 51 42 44 47 45 38 39 38 33 33 38 35 31 30 27 24 23 21 16 12 12 6 9 21 13 8 16 12 5 8 6 8 13 16 17 19 20 19 17 14 12 9
49 45 41 42 40 36 34 33 30 33 33 36 34 28 26 25 21 18 15 10 11 10 4 12 13 18 24 26 18 12 3 7 14 17 18 20 20 19 20 21 18 15 11
45 37 35 28 32 32 31 33 32 33 33 32 33 31 27 24 22 21 14 9 11 5 5 12 17 24 32 32 32 28 12 15 18 20 20 20 20 19 19 17 14 13 11
26 21 24 31 30 31 37 37 38 35 29 33 29 24 22 18 18 18 14 7 7 9 9 3 21 23 37 36 34 25 15 13 21 21 21 20 21 21 21 21 21 21 25
32 31 30 33 32 28 32 32 24 25 25 25 23 13 6 18 20 17 13 15 6 7 8 7 19 21 35 33 23 22 20 17 21 20 24 27 27 26 25 26 24 25 25
30 26 26 19 26 23 29 34 27 27 27 19 14 18 20 21 19 21 18 14 12 11 5 5 19 22 36 32 25 18 21 22 23 15 18 23 24 26 27 24 23 22 21
26 24 23 17 21 28 25 23 28 25 29 29 30 28 30 30 27 28 26 20 16 8 8 9 8 23 38 36 23 19 21 18 18 9 19 24 26 29 31 29 25 20 26
21 22 20 19 18 24 25 31 18 21 19 25 27 30 32 33 35 32 33 30 17 8 6 14 10 21 33 33 27 30 25 21 15 13 15 26 27 26 23 27 34 30 27
25 24 20 18 15 20 24 24 21 6 17 19 19 22 26 28 30 32 27 33 21 11 10 16 16 16 19 30 30 32 27 17 19 12 13 22 25 33 25 28 29 32 37
25 23 20 21 20 23 23 18 19 14 11 15 17 21 21 23 23 21 26 30 22 20 22 22 19 17 29 38 37 25 18 14 17 17 12 9 11 23 30 34 33 38 48
26 21 19 21 17 22 26 22 22 24 18 18 19 24 29 31 29 18 4 9 21 24 29 33 32 35 44 40 24 23 16 13 13 10 6 6 11 7 24 33 33 36 39
Wind_Direction_500mb
341 337 343 347 328 332 307 305 321 323 312 309 297 287 281 278 296 289 267 273 259 258 258 257 260 263 261 257 256 254 248 245 249 252 255 256 254 255 254 251 254 257 259
341 325 338 324 331 308 298 315 320 314 308 304 295 303 292 279 277 289 291 277 251 258 268 247 260 272 259 258 256 253 247 246 249 253 255 256 255 257 256 254 255 256 259
348 324 331 325 323 312 297 327 316 307 312 307 301 290 285 286 275 278 281 290 283 275 271 264 254 258 256 255 256 251 247 249 250 252 254 256 257 257 256 256 256 257 259
330 315 320 317 312 316 314 313 316 312 300 309 306 303 308 299 289 275 278 282 279 280 272 268 252 249 257 254 255 251 247 248 251 253 254 256 258 258 258 258 257 257 258
325 315 321 311 316 313 318 309 306 299 300 308 311 308 300 302 295 288 272 267 272 274 282 264 261 245 242 245 251 241 245 244 248 254 258 261 263 264 264 262 259 257 256
314 311 313 311 307 310 305 303 301 299 299 302 301 303 304 302 297 297 287 270 260 274 268 265 246 242 240 266 240 240 250 246 247 255 261 266 269 269 267 265 262 260 254
314 304 302 304 311 308 304 308 309 305 302 301 302 301 302 300 303 301 306 295 275 266 271 272 263 260 263 252 233 234 243 247 251 260 266 270 273 272 270 267 263 260 257
303 303 305 310 311 310 307 310 306 300 296 299 298 291 308 306 307 296 291 292 301 287 269 272 263 258 249 222 189 226 261 266 261 268 276 277 278 278 277 270 262 257 255
311 308 311 306 300 300 305 305 303 304 298 293 294 287 301 296 308 305 305 303 305 297 285 275 271 250 244 214 191 211 262 264 263 274 290 297 291 286 281 268 257 253 251
315 313 309 303 306 304 305 302 300 295 296 296 293 287 281 283 300 306 313 319 314 305 308 272 268 254 240 214 222 232 262 263 278 288 302 325 315 302 304 280 261 256 255
307 302 303 302 304 305 309 309 307 301 299 297 294 289 290 294 291 293 306 309 313 343 306 241 283 252 272 247 212 217 235 242 259 296 317 325 349 355 352 342 300 274 264
309 310 311 307 308 309 312 314 310 308 306 299 293 290 294 292 296 299 303 311 311 322 353 46 142 47 134 184 200 201 203 211 229 328 330 348 354 12 25 14 317 278 302
317 317 320 316 318 318 317 314 316 311 312 306 292 300 296 291 293 289 299 309 314 315 320 321 313 287 295 75 168 185 167 162 313 339 316 5 4 9 11 26 61 115 127
319 323 323 326 319 323 320 320 320 313 316 314 313 303 298 299 287 294 300 309 330 328 2 71 64 32 198 252 302 324 46 54 328 301 345 2 4 354 357 353 3 16 214
317 320 320 319 315 318 318 315 319 319 318 312 312 309 304 299 287 287 293 294 318 319 23 132 120 119 120 255 260 261 128 91 55 39 38 27 21 18 22 21 17 5 334
313 323 322 319 316 325 319 319 319 309 314 315 317 323 322 312 304 295 294 286 289 305 292 94 130 123 200 189 209 93 66 65 65 57 53 44 37 35 26 20 17 16 12
317 321 319 317 323 329 329 331 327 322 311 315 313 311 320 318 318 308 303 322 293 284 260 132 166 191 180 173 148 114 94 108 80 59 46 37 31 30 26 20 20 22 9
315 323 324 345 356 352 351 346 342 342 337 325 324 315 307 311 316 318 325 344 311 305 287 183 161 174 168 175 155 153 162 95 70 57 44 40 33 32 34 31 28 22 11
336 338 13 4 359 351 348 345 331 326 339 337 327 323 326 326 319 334 327 319 328 287 274 202 200 186 179 174 169 157 131 92 66 47 48 42 39 35 33 30 25 19 12
348 350 352 344 329 349 352 347 351 354 344 348 4 10 348 326 325 338 313 330 312 322 288 324 172 187 183 175 175 161 130 97 77 60 46 36 26 32 40 35 19 6 8
336 348 357 5 10 4 3 14 12 7 3 5 352 23 20 3 351 355 352 345 325 319 316 258 179 190 187 181 179 155 123 95 77 45 31 34 24 26 28 26 18 5 354
343 347 357 8 10 10 12 22 20 23 36 46 52 54 48 44 35 23 18 357 336 316 244 188 182 206 190 187 167 149 119 102 100 32 25 34 23 23 23 22 15 359 353
349 350 352 6 5 9 25 23 9 29 46 39 50 53 49 43 32 29 29 22 2 6 211 211 225 215 197 188 158 132 112 99 94 81 14 45 33 33 24 21 12 17 8
4 10 12 12 360 6 12 31 13 360 32 43 56 36 31 25 23 19 21 19 17 49 119 167 195 211 194 159 140 119 111 105 93 76 36 63 42 44 42 42 46 63 68
8 21 8 27 23 16 6 7 2 10 33 48 49 25 17 10 14 11 26 14 26 64 95 123 111 123 139 135 131 124 119 132 82 62 68 43 55 45 54 69 76 83 84
24 28 21 18 30 10 17 11 25 32 33 44 33 355 7 3 358 3 18 18 56 78 99 111 114 129 129 128 101 90 78 101 67 62 71 61 54 69 66 78 82 79 80
Wind_Speed_850mb
50 45 47 33 41 43 46 49 42 49 50 51 49 51 57 63 58 57 63 72 69 65 76 78 72 66 62 58 58 53 50 52 52 51 49 45 46 48 54 61 60 60 63
45 25 35 30 31 41 50 55 44 49 52 53 48 50 58 63 70 55 73 73 68 63 71 69 84 75 68 61 63 59 54 54 53 53 53 53 51 52 52 54 58 58 60
35 38 32 31 36 47 50 43 51 51 49 48 50 60 62 59 73 71 55 64 72 76 82 69 97 69 72 64 64 63 58 56 55 55 56 57 57 59 61 63 64 65 65
32 35 40 38 38 50 46 47 50 51 61 64 65 58 63 62 69 75 72 65 72 69 68 69 74 67 63 62 65 63 62 61 59 58 59 59 60 63 66 69 71 72 71
44 44 49 48 45 51 48 49 53 57 63 69 66 64 64 66 73 77 79 69 61 74 75 88 81 71 61 55 60 56 60 60 57 57 57 59 61 64 65 69 72 74 74
42 52 49 44 51 58 56 54 63 68 67 63 62 69 70 65 72 79 69 79 70 54 81 56 71 64 34 65 64 49 61 62 56 59 59 61 64 67 73 76 75 72 68
55 50 50 58 64 75 74 57 58 60 59 50 64 68 71 77 71 62 61 63 74 77 63 63 79 73 65 56 44 41 54 59 51 55 58 59 65 72 75 77 78 76 72
56 67 78 81 72 55 51 57 60 69 77 71 57 69 62 80 71 57 57 54 44 65 80 70 57 50 50 51 48 21 40 52 43 48 51 59 63 73 70 70 71 73 73
68 75 69 62 57 63 72 75 65 64 68 71 58 48 55 52 74 82 78 60 56 59 58 63 66 63 70 43 29 26 57 47 36 38 44 50 55 58 54 54 57 65 67
62 48 54 68 76 82 71 72 69 66 69 74 65 51 53 57 54 67 73 65 54 57 49 55 55 59 58 50 28 12 65 33 28 27 29 36 38 29 22 20 33 49 58
66 72 68 60 58 70 73 67 63 60 61 59 54 50 55 59 53 48 65 68 59 43 25 18 36 29 62 48 46 40 55 30 20 15 19 21 33 25 15 9 17 24 37
68 65 62 63 67 66 59 58 56 53 51 49 46 44 47 50 49 51 54 63 57 33 28 12 7 15 14 42 35 40 31 20 5 7 8 10 14 21 22 10 7 9 12
69 64 63 60 55 52 54 49 51 45 40 40 38 40 45 45 43 47 49 53 43 35 34 22 27 37 32 9 21 20 15 7 1 3 6 7 13 16 16 11 11 16 20
61 62 57 50 48 49 44 45 44 38 35 37 40 36 42 43 41 40 42 37 38 24 16 20 14 9 11 19 16 10 3 4 1 4 6 10 11 11 12 9 5 2 3
55 56 51 46 47 47 41 44 39 38 36 37 34 35 36 34 32 33 35 30 22 15 11 0 10 19 11 12 19 7 4 7 4 4 10 12 13 14 15 14 12 8 4
54 51 42 44 47 45 38 39 38 33 33 38 35 31 30 27 24 23 21 16 12 12 6 9 21 13 8 16 12 5 8 6 8 13 16 17 19 20 19 17 14 12 9
49 45 41 42 40 36 34 33 30 33 33 36 34 28 26 25 21 18 15 10 11 10 4 12 13 18 24 26 18 12 3 7 14 17 18 20 20 19 20 21 18 15 11
45 37 35 28 32 32 31 33 32 33 33 32 33 31 27 24 22 21 14 9 11 5 5 12 17 24 32 32 32 28 12 15 18 20 20 20 20 19 19 17 14 13 11
26 21 24 31 30 31 37 37 38 35 29 33 29 24 22 18 18 18 14 7 7 9 9 3 21 23 37 36 34 25 15 13 21 21 21 20 21 21 21 21 21 21 25
32 31 30 33 32 28 32 32 24 25 25 25 23 13 6 18 20 17 13 15 6 7 8 7 19 21 35 33 23 22 20 17 21 20 24 27 27 26 25 26 24 25 25
30 26 26 19 26 23 29 34 27 27 27 19 14 18 20 21 19 21 18 14 12 11 5 5 19 22 36 32 25 18 21 22 23 15 18 23 24 26 27 24 23 22 21
26 24 23 17 21 28 25 23 28 25 29 29 30 28 30 30 27 28 26 20 16 8 8 9 8 23 38 36 23 19 21 18 18 9 19 24 26 29 31 29 25 20 26
21 22 20 19 18 24 25 31 18 21 19 25 27 30 32 33 35 32 33 30 17 8 6 14 10 21 33 33 27 30 25 21 15 13 15 26 27 26 23 27 34 30 27
25 24 20 18 15 20 24 24 21 6 17 19 19 22 26 28 30 32 27 33 21 11 10 16 16 16 19 30 30 32 27 17 19 12 13 22 25 33 25 28 29 32 37
25 23 20 21 20 23 23 18 19 14 11 15 17 21 21 23 23 21 26 30 22 20 22 22 19 17 29 38 37 25 18 14 17 17 12 9 11 23 30 34 33 38 48
26 21 19 21 17 22 26 22 22 24 18 18 19 24 29 31 29 18 4 9 21 24 29 33 32 35 44 40 24 23 16 13 13 10 6 6 11 7 24 33 33 36 39
Wind_Direction_850mb
341 337 343 347 328 332 307 305 321 323 312 309 297 287 281 278 296 289 267 273 259 258 258 257 260 263 261 257 256 254 248 245 249 252 255 256 254 255 254 251 254 257 259
341 325 338 324 331 308 298 315 320 314 308 304 295 303 292 279 277 289 291 277 251 258 268 247 260 272 259 258 256 253 247 246 249 253 255 256 255 257 256 254 255 256 259
348 324 331 325 323 312 297 327 316 307 312 307 301 290 285 286 275 278 281 290 283 275 271 264 254 258 256 255 256 251 247 249 250 252 254 256 257 257 256 256 256 257 259
330 315 320 317 312 316 314 313 316 312 300 309 306 303 308 299 289 275 278 282 279 280 272 268 252 249 257 254 255 251 247 248 251 253 254 256 258 258 258 258 257 257 258
325 315 321 311 316 313 318 309 306 299 300 308 311 308 300 302 295 288 272 267 272 274 282 264 261 245 242 245 251 241 245 244 248 254 258 261 263 264 264 262 259 257 256
314 311 313 311 307 310 305 303 301 299 299 302 301 303 304 302 297 297 287 270 260 274 268 265 246 242 240 266 240 240 250 246 247 255 261 266 269 269 267 265 262 260 254
314 304 302 304 311 308 304 308 309 305 302 301 302 301 302 300 303 301 306 295 275 266 271 272 263 260 263 252 233 234 243 247 251 260 266 270 273 272 270 267 263 260 257
303 303 305 310 311 310 307 310 306 300 296 299 298 291 308 306 307 296 291 292 301 287 269 272 263 258 249 222 189 226 261 266 261 268 276 277 278 278 277 270 262 257 255
311 308 311 306 300 300 305 305 303 304 298 293 294 287 301 296 308 305 305 303 305 297 285 275 271 250 244 214 191 211 262 264 263 274 290 297 291 286 281 268 257 253 251
315 313 309 303 306 304 305 302 300 295 296 296 293 287 281 283 300 306 313 319 314 305 308 272 268 254 240 214 222 232 262 263 278 288 302 325 315 302 304 280 261 256 255
307 302 303 302 304 305 309 309 307 301 299 297 294 289 290 294 291 293 306 309 313 343 306 241 283 252 272 247 212 217 235 242 259 296 317 325 349 355 352 342 300 274 264
309 310 311 307 308 309 312 314 310 308 306 299 293 290 294 292 296 299 303 311 311 322 353 46 142 47 134 184 200 201 203 211 229 328 330 348 354 12 25 14 317 278 302
317 317 320 316 318 318 317 314 316 311 312 306 292 300 296 291 293 289 299 309 314 315 320 321 313 287 295 75 168 185 167 162 313 339 316 5 4 9 11 26 61 115 127
319 323 323 326 319 323 320 320 320 313 316 314 313 303 298 299 287 294 300 309 330 328 2 71 64 32 198 252 302 324 46 54 328 301 345 2 4 354 357 353 3 16 214
317 320 320 319 315 318 318 315 319 319 318 312 312 309 304 299 287 287 293 294 318 319 23 132 120 119 120 255 260 261 128 91 55 39 38 27 21 18 22 21 17 5 334
313 323 322 319 316 325 319 319 319 309 314 315 317 323 322 312 304 295 294 286 289 305 292 94 130 123 200 189 209 93 66 65 65 57 53 44 37 35 26 20 17 16 12
317 321 319 317 323 329 329 331 327 322 311 315 313 311 320 318 318 308 303 322 293 284 260 132 166 191 180 173 148 114 94 108 80 59 46 37 31 30 26 20 20 22 9
315 323 324 345 356 352 351 346 342 342 337 325 324 315 307 311 316 318 325 344 311 305 287 183 161 174 168 175 155 153 162 95 70 57 44 40 33 32 34 31 28 22 11
336 338 13 4 359 351 348 345 331 326 339 337 327 323 326 326 319 334 327 319 328 287 274 202 200 186 179 174 169 157 131 92 66 47 48 42 39 35 33 30 25 19 12
348 350 352 344 329 349 352 347 351 354 344 348 4 10 348 326 325 338 313 330 312 322 288 324 172 187 183 175 175 161 130 97 77 60 46 36 26 32 40 35 19 6 8
336 348 357 5 10 4 3 14 12 7 3 5 352 23 20 3 351 355 352 345 325 319 316 258 179 190 187 181 179 155 123 95 77 45 31 34 24 26 28 26 18 5 354
343 347 357 8 10 10 12 22 20 23 36 46 52 54 48 44 35 23 18 357 336 316 244 188 182 206 190 187 167 149 119 102 100 32 25 34 23 23 23 22 15 359 353
349 350 352 6 5 9 25 23 9 29 46 39 50 53 49 43 32 29 29 22 2 6 211 211 225 215 197 188 158 132 112 99 94 81 14 45 33 33 24 21 12 17 8
4 10 12 12 360 6 12 31 13 360 32 43 56 36 31 25 23 19 21 19 17 49 119 167 195 211 194 159 140 119 111 105 93 76 36 63 42 44 42 42 46 63 68
8 21 8 27 23 16 6 7 2 10 33 48 49 25 17 10 14 11 26 14 26 64 95 123 111 123 139 135 131 124 119 132 82 62 68 43 55 45 54 69 76 83 84
24 28 21 18 30 10 17 11 25 32 33 44 33 355 7 3 358 3 18 18 56 78 99 111 114 129 129 128 101 90 78 101 67 62 71 61 54 69 66 78 82 79 80